Showing default

TIGER-8, 59120

Orbit data source: Space-Track

TIGER-8, 59120 is a payload satellite owned by OQ Tech (RW) in SSO that was launched on Mon, 04 Mar 2024 UTC via an FALCON 9 launch vehicle from the Air Force Western Test Range (AFWTR). Payload-class satellites include a variety of spacecraft equipped with specific instruments for various scientific and technological missions. These include communications satellites like Starlink; space stations such as the ISS; scientific satellites like the Hubble; Earth observation satellites from companies like Planet Labs, Umbra, and HawkEye 360; GPS; miniature CubeSats for education and research; and military/defense satellites.

Loading next visibility...
Identifier
59120, 2024-043Y
Orbit
SSO
Country
Flag of RWRW / RWA
Related business
Manufacturer
NanoAvionics
Mission
Operational Commercial Communications
Bus & Motor
CUBESAT 6U, Unknown motor
Mass
~10 kg wet, ~10 kg dry
Launch date (UTC)
2024-03-04 (2 years ago)
Launch vehicle
FALCON 9
Launch site
Air Force Western Test Range (AFWTR)
Object type
Payload
Rocket body
Debris
Shape & HBR
Box + 2 Pan, 0.1 m
Radar Cross Section
0.080 m², Small (<0.1 m²)

Expand to show TLE details & history
Last TLE update: 9 hours ago

TLE from 9 hours ago
0 TIGER-8
1 59120U 24043Y   26130.18380149  .00006075  00000-0  13519-3 0  9996
2 59120  97.5503 277.3467 0007024 351.8965   8.2168 15.44013946121921
Epoch: 2026-05-10T04:24Z
TLE epoch observation values (Epoch: 2026-05-10T04:24:40.448Z)
Latitude
-0.00005°
Longitude
-16.81236°
Altitude
432.659 km
Speed
7.655 km/s
True Right ascension
18h 29m 23s
True Declination
0° 00' 00"
Sunlit
Object was in full shadow at epoch
Visualization orbit readout
Latitude
Unknown
Longitude
Unknown
Altitude
Unknown
Speed
Unknown
Apparent Right ascension
Unknown
Apparent Declination
Unknown
Sunlit
N/A
Visualization observer readout
Local Sidereal Time
21:27:36
Azimuth
Unknown
Elevation
Unknown
Doppler factor
Unknown
Orbital elements
Apogee altitude
436 km
Perigee altitude
426.434 km
Semi-major axis
6,809.354 km
Eccentricity
0.0007
Inclination
97.5503°
RAAN
277.3467°
Arg. of periapsis
351.8965°
True anomaly
8.22831°
Mean anomaly
8.2168°
Eccentric anomaly
8.22256°
Mean motion
3.86264 °/min
Orbital period
93.2 mins
BSTAR
0.00013519
Loading maneuver chart data...
Computing Atmospheric mass density...
Loading historical data...
Loading historical data...
Loading historical data...
Loading historical data...
Loading historical data...
Loading historical data...
Loading historical data...

Documentation

Showing up to 5 results
|